Location: Paderno d�Adda
(45.6667°N, 9.4333°E)
Time: 19:54:37
(UTC+00:00)

Cosmos 1844 - Pass Details

Date: 19 September 2020
Orbit: 824 x 866 km, 70.9° (Epoch: 27 October)

Event Time Altitude Azimuth Distance (km) Brightness Sun altitude
Rises 19:11:39 0° 192° (SSW) 3,412 6.8 -19.0°
Reaches altitude 10° 19:14:07 10° 189° (S) 2,475 6.0 -19.4°
Maximum altitude 19:19:41 59° 111° (ESE) 973 3.7 -20.3°
Drops below altitude 10° 19:25:14 10° 33° (NNE) 2,463 6.0 -21.1°
Sets 19:27:42 0° 30° (NNE) 3,395 6.8 -21.5°
